Back to catalog

STARLINK-3639

AliveCommunicationsVLEO
NORAD 51789·PAYLOAD·🇺🇸 United States

Launched Feb 25, 2022 from Vandenberg Space Force Base

Loading…

Next Passes (next 24 hours)

TLE

FreshSource: CelesTrak SupGP

Epoch: Sep 15, 2026, 02:15 UTC

1 51789C 22017X   26258.09423611 -.00042441  00000+0 -12541-2 0  2580
2 51789  53.1568 205.3247 0001326  89.7406 339.1771 15.34407660    17

Track STARLINK-3639 in real time with AllMySat

Download on the App Store